sat.trackr.live / text

‹ back to catalog

STARLINK-11163 [DTC]

NORAD 60047 · 2024-112K

PAYLOAD ACTIVE UNKNOWN

§ Identity

Operator
Country
US
Launch date
2024-06-08
Launch site
AFWTR
Launch vehicle
Mass (kg)
RCS (m²)

Purposes: comms

External: N2YO · Heavens-Above · Gunter

§ Orbital elements

Epoch: 2026-05-24T18:36:57.665088Z

Period
91.74 min
Inclination
53.1593°
Eccentricity
0.0000963
Mean motion
15.69730244 rev/d
Perigee alt
359.0 km
Apogee alt
360.3 km
Semi-major
6,737.8 km
B*
3.9548e-5
RAAN
251.0084°
Arg perigee
101.4476°
Mean anomaly
258.6651°
Rev number
11,293

§ Raw data

STARLINK-11163 [DTC]1 60047U 24112K   26144.77566742  .00004209  00000+0  39548-4 0  99952 60047  53.1593 251.0084 0000963 101.4476 258.6651 15.69730244112936

JSON: /api/v1/satellites/60047 · /tle

For live sub-satellite position, see the globe view (requires WebGL).

§ Visibility from observer

Set your observer location to see the next 7 days of passes ≥ 10°. The values pass through the URL so the page stays shareable.

No JS? Fill the form by hand. The geolocation button needs JavaScript.